Location: Franzen
(48.6167°N, 15.3833°E)
Time: 14:22:14
(UTC+00:00)

Transit 2A Rocket - Pass Details

Date: 01 August 2021
Orbit: 586 x 917 km, 66.7° (Epoch: 27 September)

Event Time Altitude Azimuth Distance (km) Brightness Sun altitude
Rises 19:03:55 0° 326° (NW) 3,156 9.7 -4.8°
Reaches altitude 10° 19:07:00 10° 346° (NNW) 2,300 8.3 -5.2°
Maximum altitude 19:10:32 18° 28° (NNE) 1,892 7.2 -5.7°
Drops below altitude 10° 19:14:15 10° 69° (ENE) 2,443 7.3 -6.2°
Enters shadow 19:17:37 - 88° (E) 3,420 7.9 -6.6°
